Regional Weather Roundup
Issued by NWS

Home | Current Version | Previous Version | Graphics & Text | Print | Product List | Glossary On
Versions: 1 2 3 4 5 6 7 8 9 10 11 12 13 14 15 16 17 18 19 20 21 22 23 24 25 26 27 28 29 30 31 32 33 34 35 36 37 38 39 40 41 42 43 44 45 46 47 48 49 50
000
ASUS43 KLMK 010310
RWRKY
KENTUCKY REGIONAL WEATHER ROUNDUP
NATIONAL WEATHER SERVICE LOUISVILLE KY
1100 PM EDT MON AUG 31 2015

NOTE "FAIR" INDICATES FEW OR NO CLOUDS BELOW 12,000 FEET
WITH NO SIGNIFICANT WEATHER AND/OR OBSTRUCTIONS TO VISIBILITY.

KYZ001>023-026-027-061>063-070>075-010400-
WESTERN AND SOUTH CENTRAL KENTUCKY

CITY           SKY/WX    TMP DP  RH WIND       PRES   REMARKS
PADUCAH        CLEAR     73  69  87 CALM      30.07R
HENDERSON      CLEAR     72  66  83 SW3       30.08R
OWENSBORO      CLEAR     73  68  84 CALM      30.10R
HOPKINSVILLE   CLEAR     71  67  87 NE3       30.09R
BOWLING GREEN  CLEAR     73  65  75 CALM      30.11R
GLASGOW        CLEAR     70  70 100 CALM      30.11S
$$

KYZ024-025-028>034-038-045-046-053-010400-
NORTH CENTRAL KENTUCKY

CITY           SKY/WX    TMP DP  RH WIND       PRES   REMARKS
LOUISVILLE/SDF CLEAR     79  65  62 SW5       30.09S
LOUISVILLE/LOU CLEAR     77  65  66 CALM      30.11R
FORT KNOX      CLEAR     67  64  90 CALM      30.10R
$$

KYZ035>037-039>044-047>052-055>060-089>105-010400-
NORTHEAST KENTUCKY

CITY           SKY/WX    TMP DP  RH WIND       PRES   REMARKS
LEXINGTON      CLEAR     72  64  76 CALM      30.13R
COVINGTON      PTCLDY    73  67  81 CALM      30.11S
FRANKFORT      CLEAR     69  64  84 CALM      30.11R
$$

KYZ054-064>069-076>088-106>120-010400-
SOUTHEAST KENTUCKY

CITY           SKY/WX    TMP DP  RH WIND       PRES   REMARKS
JACKSON        CLEAR     73  64  73 CALM      30.14S
LONDON         CLEAR     71  65  81 CALM      30.14R
SOMERSET       CLEAR     68  68 100 CALM      30.14R
MIDDLESBORO    CLEAR     69  66  89 CALM      30.14S
MONTICELLO     CLEAR     66  66 100 CALM      30.15S
$$



USA.gov is the U.S. government's official web portal to all federal, state and local government web resources and services.